Time,TemperatureF,DewpointF,PressureIn,WindDirection,WindDirectionDegrees,WindSpeedMPH,WindSpeedGustMPH,Humidity,HourlyPrecipIn,Conditions,Clouds,dailyrainin,SoftwareType,DateUTC
2013-04-08 00:00:00,46.3,43.8,29.68,SSE,147,8.0,19.0,91,0.00,,,0.20,Wunderground v.1.15,2013-04-08 05:00:00,
2013-04-08 00:05:00,46.5,44.3,29.68,SSE,147,9.0,19.0,92,0.00,,,0.00,Wunderground v.1.15,2013-04-08 05:05:00,
2013-04-08 00:15:00,46.3,44.1,29.67,SE,146,9.0,19.0,92,0.00,,,0.00,Wunderground v.1.15,2013-04-08 05:15:00,
2013-04-08 00:20:00,46.3,44.1,29.68,SE,146,10.0,19.0,92,0.00,,,0.00,Wunderground v.1.15,2013-04-08 05:20:00,
2013-04-08 00:25:00,46.5,44.6,29.68,SSE,150,10.0,19.0,93,0.00,,,0.00,Wunderground v.1.15,2013-04-08 05:25:00,
2013-04-08 00:30:00,46.4,44.2,29.68,SSE,153,10.0,10.0,92,0.00,,,0.00,Wunderground v.1.15,2013-04-08 05:30:00,
2013-04-08 00:40:00,46.3,44.4,29.68,SSE,149,10.0,19.0,93,0.00,,,0.00,Wunderground v.1.15,2013-04-08 05:40:00,
2013-04-08 00:45:00,46.7,44.8,29.68,SSE,150,10.0,19.0,93,0.00,,,0.00,Wunderground v.1.15,2013-04-08 05:45:00,
2013-04-08 00:55:00,46.7,44.5,29.68,SSE,154,9.0,19.0,92,0.00,,,0.00,Wunderground v.1.15,2013-04-08 05:55:00,
2013-04-08 01:00:00,46.9,44.7,29.68,SSE,153,9.0,9.0,92,0.00,,,0.00,Wunderground v.1.15,2013-04-08 06:00:00,
2013-04-08 01:05:00,46.6,44.4,29.68,SSE,153,8.0,19.0,92,0.00,,,0.00,Wunderground v.1.15,2013-04-08 06:05:00,
2013-04-08 01:15:00,46.3,44.4,29.68,SSE,153,7.0,19.0,93,0.00,,,0.00,Wunderground v.1.15,2013-04-08 06:15:00,
2013-04-08 01:20:00,46.5,44.6,29.69,SSE,154,8.0,19.0,93,0.00,,,0.00,Wunderground v.1.15,2013-04-08 06:20:00,
2013-04-08 01:25:00,46.8,44.9,29.69,SSE,151,9.0,19.0,93,0.00,,,0.00,Wunderground v.1.15,2013-04-08 06:25:00,
2013-04-08 01:30:00,46.6,44.4,29.69,SSE,152,9.0,19.0,92,0.00,,,0.00,Wunderground v.1.15,2013-04-08 06:30:00,
2013-04-08 01:40:00,46.1,44.2,29.68,SSE,152,9.0,9.0,93,0.00,,,0.00,Wunderground v.1.15,2013-04-08 06:40:00,
2013-04-08 01:45:00,46.0,44.1,29.69,SSE,153,8.0,19.0,93,0.00,,,0.00,Wunderground v.1.15,2013-04-08 06:45:00,
2013-04-08 01:55:00,45.6,43.7,29.69,SSE,152,8.0,19.0,93,0.00,,,0.00,Wunderground v.1.15,2013-04-08 06:55:00,
2013-04-08 02:00:00,45.4,43.5,29.69,SSE,152,8.0,8.0,93,0.00,,,0.00,Wunderground v.1.15,2013-04-08 07:00:00,
2013-04-08 02:10:00,45.4,43.8,29.69,SSE,153,7.0,19.0,94,0.00,,,0.00,Wunderground v.1.15,2013-04-08 07:10:00,
2013-04-08 02:15:00,45.2,43.6,29.69,SSE,153,7.0,19.0,94,0.00,,,0.00,Wunderground v.1.15,2013-04-08 07:15:00,
2013-04-08 02:20:00,45.1,43.5,29.68,SSE,153,6.0,19.0,94,0.00,,,0.00,Wunderground v.1.15,2013-04-08 07:20:00,
2013-04-08 02:30:00,44.8,43.2,29.69,SSE,153,7.0,7.0,94,0.00,,,0.00,Wunderground v.1.15,2013-04-08 07:30:00,
2013-04-08 02:35:00,44.6,43.0,29.69,SSE,153,6.0,19.0,94,0.00,,,0.00,Wunderground v.1.15,2013-04-08 07:35:00,
2013-04-08 02:40:00,44.9,43.6,29.68,SSE,153,6.0,19.0,95,0.00,,,0.00,Wunderground v.1.15,2013-04-08 07:40:00,
2013-04-08 02:50:00,45.1,43.8,29.68,SSE,157,6.0,19.0,95,0.00,,,0.00,Wunderground v.1.15,2013-04-08 07:50:00,
2013-04-08 02:55:00,45.4,44.1,29.68,SSE,153,7.0,19.0,95,0.00,,,0.00,Wunderground v.1.15,2013-04-08 07:55:00,
2013-04-08 03:00:00,45.3,44.0,29.68,SSE,154,8.0,8.0,95,0.00,,,0.00,Wunderground v.1.15,2013-04-08 08:00:00,
2013-04-08 03:05:00,45.2,43.9,29.68,SSE,155,6.0,19.0,95,0.00,,,0.00,Wunderground v.1.15,2013-04-08 08:05:00,
2013-04-08 03:15:00,44.5,43.2,29.67,SSE,155,5.0,19.0,95,0.00,,,0.00,Wunderground v.1.15,2013-04-08 08:15:00,
2013-04-08 03:20:00,44.4,43.1,29.67,SSE,155,5.0,5.0,95,0.00,,,0.00,Wunderground v.1.15,2013-04-08 08:20:00,
2013-04-08 03:25:00,44.2,42.9,29.67,SSE,155,4.0,19.0,95,0.00,,,0.00,Wunderground v.1.15,2013-04-08 08:25:00,
2013-04-08 03:35:00,43.7,42.4,29.67,SSE,155,3.0,19.0,95,0.00,,,0.00,Wunderground v.1.15,2013-04-08 08:35:00,
2013-04-08 03:45:00,43.7,42.4,29.66,SSE,155,3.0,19.0,95,0.00,,,0.00,Wunderground v.1.15,2013-04-08 08:45:00,
2013-04-08 03:50:00,43.6,42.3,29.66,SSE,155,2.0,19.0,95,0.00,,,0.00,Wunderground v.1.15,2013-04-08 08:50:00,
2013-04-08 03:55:00,43.6,42.5,29.66,SSE,155,3.0,19.0,96,0.00,,,0.00,Wunderground v.1.15,2013-04-08 08:55:00,
2013-04-08 04:00:00,43.6,42.3,29.66,SSE,155,4.0,19.0,95,0.00,,,0.00,Wunderground v.1.15,2013-04-08 09:00:00,
2013-04-08 04:10:00,44.0,42.9,29.66,SSE,161,5.0,19.0,96,0.00,,,0.00,Wunderground v.1.15,2013-04-08 09:10:00,
2013-04-08 04:15:00,44.5,43.4,29.66,SSE,163,5.0,19.0,96,0.00,,,0.00,Wunderground v.1.15,2013-04-08 09:15:00,
2013-04-08 04:20:00,44.9,43.8,29.66,SSE,165,5.0,19.0,96,0.00,,,0.00,Wunderground v.1.15,2013-04-08 09:20:00,
2013-04-08 04:30:00,45.1,44.0,29.66,SSE,165,5.0,5.0,96,0.00,,,0.00,Wunderground v.1.15,2013-04-08 09:30:00,
2013-04-08 04:35:00,45.1,44.0,29.67,SSE,165,5.0,7.0,96,0.00,,,0.00,Wunderground v.1.15,2013-04-08 09:35:00,
2013-04-08 04:40:00,45.1,44.0,29.67,SSE,166,6.0,19.0,96,0.00,,,0.00,Wunderground v.1.15,2013-04-08 09:40:00,
2013-04-08 04:50:00,45.2,44.1,29.67,South,173,7.0,19.0,96,0.00,,,0.00,Wunderground v.1.15,2013-04-08 09:50:00,
2013-04-08 04:55:00,45.4,44.3,29.67,South,173,7.0,19.0,96,0.00,,,0.00,Wunderground v.1.15,2013-04-08 09:55:00,
2013-04-08 05:00:00,45.4,44.3,29.67,South,173,6.0,6.0,96,0.00,,,0.00,Wunderground v.1.15,2013-04-08 10:00:00,
2013-04-08 05:05:00,45.5,44.4,29.67,South,173,5.0,19.0,96,0.00,,,0.00,Wunderground v.1.15,2013-04-08 10:05:00,
2013-04-08 05:15:00,45.7,44.6,29.67,South,173,5.0,6.0,96,0.00,,,0.00,Wunderground v.1.15,2013-04-08 10:15:00,
2013-04-08 05:20:00,45.8,44.7,29.66,South,173,5.0,5.0,96,0.00,,,0.00,Wunderground v.1.15,2013-04-08 10:20:00,
2013-04-08 05:25:00,45.8,44.7,29.66,South,173,4.0,19.0,96,0.00,,,0.00,Wunderground v.1.15,2013-04-08 10:25:00,
2013-04-08 05:35:00,45.6,44.5,29.67,South,173,2.0,19.0,96,0.00,,,0.00,Wunderground v.1.15,2013-04-08 10:35:00,
2013-04-08 05:40:00,45.6,44.5,29.67,South,173,2.0,19.0,96,0.00,,,0.00,Wunderground v.1.15,2013-04-08 10:40:00,
2013-04-08 05:50:00,45.6,44.5,29.67,South,173,3.0,19.0,96,0.00,,,0.00,Wunderground v.1.15,2013-04-08 10:50:00,
2013-04-08 06:00:00,45.6,44.5,29.67,South,173,3.0,19.0,96,0.00,,,0.00,Wunderground v.1.15,2013-04-08 11:00:00,
2013-04-08 06:05:00,45.7,44.6,29.68,South,173,3.0,19.0,96,0.00,,,0.00,Wunderground v.1.15,2013-04-08 11:05:00,
2013-04-08 06:10:00,45.9,44.8,29.67,South,173,3.0,19.0,96,0.00,,,0.00,Wunderground v.1.15,2013-04-08 11:10:00,
2013-04-08 06:15:00,46.1,45.0,29.67,South,173,2.0,19.0,96,0.00,,,0.00,Wunderground v.1.15,2013-04-08 11:15:00,
2013-04-08 06:25:00,46.3,45.5,29.67,South,173,1.0,19.0,97,0.00,,,0.00,Wunderground v.1.15,2013-04-08 11:25:00,
2013-04-08 06:30:00,46.4,45.6,29.67,South,173,0.0,19.0,97,0.00,,,0.00,Wunderground v.1.15,2013-04-08 11:30:00,
2013-04-08 06:35:00,46.4,45.6,29.67,South,173,0.0,19.0,97,0.00,,,0.00,Wunderground v.1.15,2013-04-08 11:35:00,
2013-04-08 06:45:00,46.5,45.7,29.67,South,173,1.0,19.0,97,0.00,,,0.00,Wunderground v.1.15,2013-04-08 11:45:00,
2013-04-08 06:50:00,46.6,45.5,29.67,South,173,1.0,19.0,96,0.00,,,0.00,Wunderground v.1.15,2013-04-08 11:50:00,
2013-04-08 07:00:00,46.8,45.7,29.67,South,173,1.0,1.0,96,0.00,,,0.00,Wunderground v.1.15,2013-04-08 12:00:00,
2013-04-08 07:05:00,46.9,45.8,29.68,South,173,0.0,2.0,96,0.00,,,0.00,Wunderground v.1.15,2013-04-08 12:05:00,
2013-04-08 07:10:00,47.0,45.9,29.67,South,173,1.0,19.0,96,0.00,,,0.00,Wunderground v.1.15,2013-04-08 12:10:00,
2013-04-08 07:20:00,47.2,46.4,29.67,South,173,2.0,2.0,97,0.00,,,0.00,Wunderground v.1.15,2013-04-08 12:20:00,
2013-04-08 07:30:00,47.4,46.6,29.68,South,173,0.0,19.0,97,0.00,,,0.00,Wunderground v.1.15,2013-04-08 12:30:00,
2013-04-08 07:35:00,47.6,46.8,29.68,South,173,0.0,19.0,97,0.00,,,0.00,Wunderground v.1.15,2013-04-08 12:35:00,
2013-04-08 07:40:00,47.8,47.0,29.67,South,173,1.0,19.0,97,0.00,,,0.00,Wunderground v.1.15,2013-04-08 12:40:00,
2013-04-08 07:50:00,48.4,47.6,29.68,South,173,3.0,3.0,97,0.00,,,0.00,Wunderground v.1.15,2013-04-08 12:50:00,
2013-04-08 08:00:00,48.8,48.0,29.68,South,173,4.0,19.0,97,0.00,,,0.00,Wunderground v.1.15,2013-04-08 13:00:00,
2013-04-08 08:05:00,49.1,48.3,29.68,South,173,5.0,19.0,97,0.00,,,0.00,Wunderground v.1.15,2013-04-08 13:05:00,
2013-04-08 08:10:00,49.3,48.5,29.68,South,173,5.0,5.0,97,0.00,,,0.00,Wunderground v.1.15,2013-04-08 13:10:00,
2013-04-08 08:20:00,49.6,48.8,29.68,South,173,4.0,19.0,97,0.00,,,0.00,Wunderground v.1.15,2013-04-08 13:20:00,
2013-04-08 08:25:00,49.9,49.1,29.68,South,173,4.0,19.0,97,0.00,,,0.00,Wunderground v.1.15,2013-04-08 13:25:00,
2013-04-08 08:35:00,50.5,49.7,29.68,South,173,4.0,19.0,97,0.00,,,0.00,Wunderground v.1.15,2013-04-08 13:35:00,
2013-04-08 08:40:00,50.9,50.1,29.68,South,173,3.0,19.0,97,0.00,,,0.00,Wunderground v.1.15,2013-04-08 13:40:00,
2013-04-08 08:45:00,51.2,50.4,29.68,South,173,3.0,19.0,97,0.00,,,0.00,Wunderground v.1.15,2013-04-08 13:45:00,
2013-04-08 08:55:00,52.0,51.2,29.68,South,175,5.0,19.0,97,0.00,,,0.00,Wunderground v.1.15,2013-04-08 13:55:00,
2013-04-08 09:05:00,53.0,52.2,29.68,South,182,5.0,19.0,97,0.00,,,0.00,Wunderground v.1.15,2013-04-08 14:05:00,
2013-04-08 09:10:00,53.2,52.4,29.68,South,182,5.0,19.0,97,0.00,,,0.00,Wunderground v.1.15,2013-04-08 14:10:00,
2013-04-08 09:15:00,53.6,52.8,29.67,South,182,5.0,19.0,97,0.00,,,0.00,Wunderground v.1.15,2013-04-08 14:15:00,
2013-04-08 09:20:00,53.8,53.0,29.67,SSW,196,6.0,19.0,97,0.00,,,0.00,Wunderground v.1.15,2013-04-08 14:20:00,
2013-04-08 09:30:00,54.0,53.2,29.67,SSW,211,7.0,7.0,97,0.00,,,0.00,Wunderground v.1.15,2013-04-08 14:30:00,
2013-04-08 09:35:00,54.2,53.4,29.67,SW,220,7.0,10.0,97,0.00,,,0.00,Wunderground v.1.15,2013-04-08 14:35:00,
2013-04-08 09:45:00,54.2,53.4,29.67,SW,224,7.0,19.0,97,0.00,,,0.00,Wunderground v.1.15,2013-04-08 14:45:00,
2013-04-08 09:55:00,54.2,53.4,29.67,SW,214,8.0,8.0,97,0.00,,,0.00,Wunderground v.1.15,2013-04-08 14:55:00,
2013-04-08 10:00:00,54.5,53.7,29.67,SW,218,7.0,7.0,97,0.00,,,0.00,Wunderground v.1.15,2013-04-08 15:00:00,
2013-04-08 10:05:00,54.4,53.6,29.67,WSW,246,7.0,19.0,97,0.00,,,0.00,Wunderground v.1.15,2013-04-08 15:05:00,
2013-04-08 10:10:00,54.5,53.7,29.67,WSW,246,7.0,19.0,97,0.00,,,0.00,Wunderground v.1.15,2013-04-08 15:10:00,
2013-04-08 10:20:00,54.8,54.0,29.68,SSW,213,9.0,19.0,97,0.00,,,0.00,Wunderground v.1.15,2013-04-08 15:20:00,
2013-04-08 10:30:00,55.3,54.5,29.68,SSW,206,7.0,7.0,97,0.00,,,0.00,Wunderground v.1.15,2013-04-08 15:30:00,
2013-04-08 10:35:00,55.4,54.6,29.68,SSW,205,6.0,19.0,97,0.00,,,0.00,Wunderground v.1.15,2013-04-08 15:35:00,
2013-04-08 10:40:00,55.5,54.7,29.69,South,176,6.0,19.0,97,0.00,,,0.00,Wunderground v.1.15,2013-04-08 15:40:00,
2013-04-08 10:50:00,55.4,54.6,29.69,South,178,9.0,9.0,97,0.00,,,0.00,Wunderground v.1.15,2013-04-08 15:50:00,
2013-04-08 10:55:00,55.6,54.8,29.69,SW,219,9.0,19.0,97,0.00,,,0.00,Wunderground v.1.15,2013-04-08 15:55:00,
2013-04-08 11:05:00,56.3,55.5,29.69,South,182,8.0,19.0,97,0.00,,,0.00,Wunderground v.1.15,2013-04-08 16:05:00,
2013-04-08 11:10:00,56.2,55.4,29.69,South,172,6.0,19.0,97,0.00,,,0.00,Wunderground v.1.15,2013-04-08 16:10:00,
2013-04-08 11:20:00,56.8,56.0,29.69,SSW,197,5.0,5.0,97,0.00,,,0.00,Wunderground v.1.15,2013-04-08 16:20:00,
2013-04-08 11:25:00,56.6,55.8,29.69,SSW,194,5.0,10.0,97,0.00,,,0.00,Wunderground v.1.15,2013-04-08 16:25:00,
2013-04-08 11:30:00,56.8,56.0,29.69,SSE,158,6.0,19.0,97,0.00,,,0.00,Wunderground v.1.15,2013-04-08 16:30:00,
2013-04-08 11:40:00,57.1,56.3,29.69,SSE,168,7.0,7.0,97,0.00,,,0.00,Wunderground v.1.15,2013-04-08 16:40:00,
2013-04-08 11:45:00,57.5,56.7,29.69,SSE,163,6.0,19.0,97,0.00,,,0.00,Wunderground v.1.15,2013-04-08 16:45:00,
2013-04-08 11:50:00,57.5,56.7,29.69,South,172,6.0,19.0,97,0.00,,,0.00,Wunderground v.1.15,2013-04-08 16:50:00,
2013-04-08 12:00:00,57.9,56.8,29.69,SSE,161,5.0,19.0,96,0.00,,,0.00,Wunderground v.1.15,2013-04-08 17:00:00,
2013-04-08 12:10:00,58.0,56.6,29.69,South,170,6.0,19.0,95,0.00,,,0.00,Wunderground v.1.15,2013-04-08 17:10:00,
2013-04-08 12:15:00,58.5,57.1,29.69,South,179,5.0,19.0,95,0.00,,,0.00,Wunderground v.1.15,2013-04-08 17:15:00,
2013-04-08 12:20:00,58.7,57.0,29.69,South,172,5.0,19.0,94,0.00,,,0.00,Wunderground v.1.15,2013-04-08 17:20:00,
2013-04-08 12:30:00,58.7,56.7,29.69,SSE,166,5.0,5.0,93,0.00,,,0.00,Wunderground v.1.15,2013-04-08 17:30:00,
2013-04-08 12:35:00,59.1,57.1,29.70,SSE,159,4.0,19.0,93,0.00,,,0.00,Wunderground v.1.15,2013-04-08 17:35:00,
2013-04-08 12:40:00,59.5,57.5,29.69,SSE,159,5.0,19.0,93,0.00,,,0.00,Wunderground v.1.15,2013-04-08 17:40:00,
2013-04-08 12:50:00,59.9,57.3,29.70,SSE,159,4.0,19.0,91,0.00,,,0.00,Wunderground v.1.15,2013-04-08 17:50:00,
2013-04-08 12:55:00,60.5,57.9,29.70,SE,144,5.0,19.0,91,0.00,,,0.00,Wunderground v.1.15,2013-04-08 17:55:00,
2013-04-08 13:00:00,60.9,57.6,29.70,SSE,157,7.0,7.0,89,0.00,,,0.00,Wunderground v.1.15,2013-04-08 18:00:00,
2013-04-08 13:10:00,60.8,57.5,29.69,SSE,153,5.0,19.0,89,0.00,,,0.00,Wunderground v.1.15,2013-04-08 18:10:00,
2013-04-08 13:15:00,61.0,58.0,29.69,SSE,158,5.0,19.0,90,0.00,,,0.00,Wunderground v.1.15,2013-04-08 18:15:00,
2013-04-08 13:20:00,61.3,57.7,29.69,SSE,154,6.0,6.0,88,0.00,,,0.00,Wunderground v.1.15,2013-04-08 18:20:00,
2013-04-08 13:25:00,61.3,57.7,29.69,SSE,154,5.0,8.0,88,0.00,,,0.00,Wunderground v.1.15,2013-04-08 18:25:00,
2013-04-08 13:35:00,61.6,58.0,29.69,SSE,147,8.0,19.0,88,0.00,,,0.00,Wunderground v.1.15,2013-04-08 18:35:00,
2013-04-08 13:40:00,61.9,58.0,29.69,SE,135,8.0,19.0,87,0.00,,,0.00,Wunderground v.1.15,2013-04-08 18:40:00,
2013-04-08 13:50:00,62.2,58.6,29.68,SE,138,7.0,19.0,88,0.00,,,0.00,Wunderground v.1.15,2013-04-08 18:50:00,
2013-04-08 13:55:00,62.2,58.6,29.68,SE,138,7.0,19.0,88,0.00,,,0.00,Wunderground v.1.15,2013-04-08 18:55:00,
2013-04-08 14:00:00,62.0,58.1,29.68,SSE,150,8.0,8.0,87,0.00,,,0.00,Wunderground v.1.15,2013-04-08 19:00:00,
2013-04-08 14:10:00,62.2,58.6,29.68,SE,145,7.0,19.0,88,0.00,,,0.00,Wunderground v.1.15,2013-04-08 19:10:00,
2013-04-08 14:15:00,62.0,57.8,29.68,SE,141,8.0,19.0,86,0.00,,,0.00,Wunderground v.1.15,2013-04-08 19:15:00,
2013-04-08 14:25:00,62.2,58.3,29.68,SE,129,9.0,19.0,87,0.00,,,0.00,Wunderground v.1.15,2013-04-08 19:25:00,
2013-04-08 14:30:00,62.3,57.7,29.68,ESE,113,9.0,19.0,85,0.00,,,0.00,Wunderground v.1.15,2013-04-08 19:30:00,
2013-04-08 14:40:00,62.5,58.3,29.68,SE,142,9.0,19.0,86,0.00,,,0.00,Wunderground v.1.15,2013-04-08 19:40:00,
2013-04-08 14:50:00,62.3,58.1,29.68,ESE,123,11.0,19.0,86,0.00,,,0.00,Wunderground v.1.15,2013-04-08 19:50:00,
2013-04-08 14:55:00,62.2,58.0,29.68,SE,144,13.0,19.0,86,0.00,,,0.00,Wunderground v.1.15,2013-04-08 19:55:00,
2013-04-08 15:00:00,62.1,58.2,29.68,SE,135,13.0,13.0,87,0.00,,,0.00,Wunderground v.1.15,2013-04-08 20:00:00,
2013-04-08 15:05:00,62.3,58.4,29.68,SE,128,11.0,15.0,87,0.00,,,0.00,Wunderground v.1.15,2013-04-08 20:05:00,
2013-04-08 15:15:00,62.3,58.4,29.68,SE,136,13.0,19.0,87,0.00,,,0.00,Wunderground v.1.15,2013-04-08 20:15:00,
2013-04-08 15:20:00,62.3,58.4,29.68,SE,127,13.0,19.0,87,0.00,,,0.00,Wunderground v.1.15,2013-04-08 20:20:00,
2013-04-08 15:25:00,62.1,58.2,29.68,SE,128,13.0,19.0,87,0.00,,,0.00,Wunderground v.1.15,2013-04-08 20:25:00,
2013-04-08 15:35:00,62.1,58.5,29.68,SE,138,12.0,19.0,88,0.00,,,0.00,Wunderground v.1.15,2013-04-08 20:35:00,
2013-04-08 15:40:00,62.0,58.4,29.68,SE,130,11.0,11.0,88,0.00,,,0.00,Wunderground v.1.15,2013-04-08 20:40:00,
2013-04-08 15:45:00,62.2,58.6,29.68,SE,133,11.0,19.0,88,0.00,,,0.00,Wunderground v.1.15,2013-04-08 20:45:00,
2013-04-08 15:55:00,62.6,58.7,29.68,ESE,117,10.0,19.0,87,0.00,,,0.00,Wunderground v.1.15,2013-04-08 20:55:00,
2013-04-08 16:00:00,62.8,59.2,29.68,ESE,117,9.0,9.0,88,0.00,,,0.00,Wunderground v.1.15,2013-04-08 21:00:00,
2013-04-08 16:10:00,63.9,59.3,29.67,ESE,109,8.0,19.0,85,0.00,,,0.00,Wunderground v.1.15,2013-04-08 21:10:00,
2013-04-08 16:15:00,64.2,59.6,29.67,East,100,9.0,19.0,85,0.00,,,0.00,Wunderground v.1.15,2013-04-08 21:15:00,
2013-04-08 16:20:00,64.4,59.5,29.67,East,89,8.0,8.0,84,0.00,,,0.00,Wunderground v.1.15,2013-04-08 21:20:00,
2013-04-08 16:25:00,64.7,59.4,29.67,ESE,102,8.0,11.0,83,0.00,,,0.00,Wunderground v.1.15,2013-04-08 21:25:00,
2013-04-08 16:35:00,65.2,59.9,29.67,ESE,108,8.0,19.0,83,0.00,,,0.00,Wunderground v.1.15,2013-04-08 21:35:00,
2013-04-08 16:40:00,65.0,59.4,29.67,ESE,116,8.0,19.0,82,0.00,,,0.00,Wunderground v.1.15,2013-04-08 21:40:00,
2013-04-08 16:45:00,65.1,59.8,29.66,ESE,119,9.0,19.0,83,0.00,,,0.00,Wunderground v.1.15,2013-04-08 21:45:00,
2013-04-08 16:55:00,65.4,59.8,29.66,ESE,105,9.0,12.0,82,0.00,,,0.00,Wunderground v.1.15,2013-04-08 21:55:00,
2013-04-08 17:00:00,65.4,59.8,29.66,ESE,119,10.0,19.0,82,0.00,,,0.00,Wunderground v.1.15,2013-04-08 22:00:00,
2013-04-08 17:05:00,65.5,59.9,29.66,ESE,113,10.0,19.0,82,0.00,,,0.00,Wunderground v.1.15,2013-04-08 22:05:00,
2013-04-08 17:15:00,65.7,60.1,29.65,ESE,111,9.0,19.0,82,0.00,,,0.00,Wunderground v.1.15,2013-04-08 22:15:00,
2013-04-08 17:25:00,65.9,59.9,29.65,East,86,8.0,19.0,81,0.00,,,0.00,Wunderground v.1.15,2013-04-08 22:25:00,
2013-04-08 17:30:00,66.1,60.1,29.66,ESE,107,8.0,8.0,81,0.00,,,0.00,Wunderground v.1.15,2013-04-08 22:30:00,
2013-04-08 17:35:00,66.3,60.3,29.66,ESE,102,9.0,9.0,81,0.00,,,0.00,Wunderground v.1.15,2013-04-08 22:35:00,
2013-04-08 17:40:00,66.2,60.2,29.66,East,86,9.0,9.0,81,0.00,,,0.00,Wunderground v.1.15,2013-04-08 22:40:00,
2013-04-08 17:50:00,66.2,60.2,29.65,East,96,8.0,19.0,81,0.00,,,0.00,Wunderground v.1.15,2013-04-08 22:50:00,
2013-04-08 18:00:00,66.3,60.3,29.66,East,90,9.0,9.0,81,0.00,,,0.00,Wunderground v.1.15,2013-04-08 23:00:00,
2013-04-08 18:05:00,66.6,60.2,29.65,East,79,8.0,19.0,80,0.00,,,0.00,Wunderground v.1.15,2013-04-08 23:05:00,
2013-04-08 18:15:00,66.5,60.5,29.66,ENE,77,8.0,19.0,81,0.00,,,0.00,Wunderground v.1.15,2013-04-08 23:15:00,
2013-04-08 18:20:00,66.4,60.4,29.65,ENE,76,8.0,8.0,81,0.00,,,0.00,Wunderground v.1.15,2013-04-08 23:20:00,
2013-04-08 18:30:00,66.5,60.5,29.65,ENE,78,8.0,19.0,81,0.00,,,0.00,Wunderground v.1.15,2013-04-08 23:30:00,
2013-04-08 18:35:00,66.7,60.7,29.65,East,81,8.0,19.0,81,0.00,,,0.00,Wunderground v.1.15,2013-04-08 23:35:00,
2013-04-08 18:40:00,66.8,60.8,29.65,ENE,71,8.0,19.0,81,0.00,,,0.00,Wunderground v.1.15,2013-04-08 23:40:00,
2013-04-08 18:50:00,66.7,60.7,29.64,ENE,66,9.0,9.0,81,0.00,,,0.00,Wunderground v.1.15,2013-04-08 23:50:00,
2013-04-08 19:00:00,66.4,60.7,29.64,ENE,63,8.0,8.0,82,0.00,,,0.00,Wunderground v.1.15,2013-04-09 00:00:00,
2013-04-08 19:05:00,66.3,60.6,29.64,East,90,8.0,10.0,82,0.00,,,0.00,Wunderground v.1.15,2013-04-09 00:05:00,
2013-04-08 19:10:00,66.3,60.6,29.64,ENE,76,9.0,9.0,82,0.00,,,0.00,Wunderground v.1.15,2013-04-09 00:10:00,
2013-04-08 19:20:00,65.7,60.4,29.65,ENE,65,10.0,19.0,83,0.00,,,0.00,Wunderground v.1.15,2013-04-09 00:20:00,
2013-04-08 19:30:00,64.9,59.9,29.64,ENE,76,11.0,11.0,84,0.00,,,0.00,Wunderground v.1.15,2013-04-09 00:30:00,
2013-04-08 19:35:00,64.6,60.0,29.64,ENE,66,11.0,12.0,85,0.00,,,0.00,Wunderground v.1.15,2013-04-09 00:35:00,
2013-04-08 19:40:00,64.2,59.9,29.64,ENE,77,11.0,11.0,86,0.00,,,0.00,Wunderground v.1.15,2013-04-09 00:40:00,
2013-04-08 19:45:00,64.0,59.7,29.64,East,88,12.0,15.0,86,0.00,,,0.00,Wunderground v.1.15,2013-04-09 00:45:00,
2013-04-08 19:55:00,63.5,59.6,29.65,ENE,70,10.0,13.0,87,0.00,,,0.00,Wunderground v.1.15,2013-04-09 00:55:00,
2013-04-08 20:00:00,63.3,59.4,29.65,East,82,10.0,19.0,87,0.00,,,0.00,Wunderground v.1.15,2013-04-09 01:00:00,
2013-04-08 20:10:00,63.0,59.4,29.65,East,80,11.0,19.0,88,0.00,,,0.00,Wunderground v.1.15,2013-04-09 01:10:00,
2013-04-08 20:15:00,62.9,59.3,29.64,ENE,69,11.0,19.0,88,0.00,,,0.00,Wunderground v.1.15,2013-04-09 01:15:00,
2013-04-08 20:25:00,62.6,59.0,29.64,East,94,11.0,19.0,88,0.00,,,0.00,Wunderground v.1.15,2013-04-09 01:25:00,
2013-04-08 20:30:00,62.5,59.2,29.63,ENE,76,11.0,19.0,89,0.00,,,0.00,Wunderground v.1.15,2013-04-09 01:30:00,
2013-04-08 20:35:00,62.4,59.1,29.63,East,81,12.0,19.0,89,0.00,,,0.00,Wunderground v.1.15,2013-04-09 01:35:00,
2013-04-08 20:45:00,62.1,59.1,29.64,East,88,13.0,19.0,90,0.00,,,0.00,Wunderground v.1.15,2013-04-09 01:45:00,
2013-04-08 20:50:00,62.2,59.2,29.65,ENE,74,12.0,12.0,90,0.00,,,0.00,Wunderground v.1.15,2013-04-09 01:50:00,
2013-04-08 20:55:00,62.2,59.2,29.65,ENE,63,12.0,19.0,90,0.00,,,0.00,Wunderground v.1.15,2013-04-09 01:55:00,
2013-04-08 21:00:00,62.1,59.1,29.66,ENE,74,12.0,12.0,90,0.00,,,0.00,Wunderground v.1.15,2013-04-09 02:00:00,
2013-04-08 21:05:00,62.0,59.3,29.66,NE,50,12.0,19.0,91,0.00,,,0.00,Wunderground v.1.15,2013-04-09 02:05:00,
2013-04-08 21:15:00,62.0,59.3,29.68,ESE,109,13.0,13.0,91,0.00,,,0.00,Wunderground v.1.15,2013-04-09 02:15:00,
2013-04-08 21:20:00,62.0,59.3,29.68,East,83,12.0,19.0,91,0.00,,,0.00,Wunderground v.1.15,2013-04-09 02:20:00,
2013-04-08 21:25:00,62.1,59.4,29.68,ESE,104,12.0,19.0,91,0.00,,,0.00,Wunderground v.1.15,2013-04-09 02:25:00,
2013-04-08 21:30:00,62.1,59.4,29.68,ENE,75,12.0,19.0,91,0.00,,,0.00,Wunderground v.1.15,2013-04-09 02:30:00,
2013-04-08 21:40:00,62.0,59.3,29.68,ESE,103,13.0,19.0,91,0.00,,,0.00,Wunderground v.1.15,2013-04-09 02:40:00,
2013-04-08 21:45:00,61.8,59.5,29.67,ESE,109,13.0,19.0,92,0.00,,,0.00,Wunderground v.1.15,2013-04-09 02:45:00,
2013-04-08 21:55:00,61.6,59.3,29.67,ESE,107,14.0,15.0,92,0.00,,,0.00,Wunderground v.1.15,2013-04-09 02:55:00,
2013-04-08 22:00:00,61.5,59.2,29.67,ESE,114,14.0,19.0,92,0.00,,,0.00,Wunderground v.1.15,2013-04-09 03:00:00,
2013-04-08 22:10:00,61.2,59.2,29.66,ESE,122,14.0,19.0,93,0.00,,,0.00,Wunderground v.1.15,2013-04-09 03:10:00,
2013-04-08 22:15:00,61.3,59.3,29.65,ESE,123,13.0,19.0,93,0.00,,,0.00,Wunderground v.1.15,2013-04-09 03:15:00,
2013-04-08 22:20:00,61.5,59.5,29.65,SE,126,14.0,14.0,93,0.00,,,0.00,Wunderground v.1.15,2013-04-09 03:20:00,
2013-04-08 22:30:00,61.6,59.3,29.64,SE,130,15.0,15.0,92,0.00,,,0.00,Wunderground v.1.15,2013-04-09 03:30:00,
2013-04-08 22:35:00,61.7,59.0,29.63,ESE,118,16.0,18.0,91,0.00,,,0.00,Wunderground v.1.15,2013-04-09 03:35:00,
2013-04-08 22:45:00,61.4,58.4,29.62,SE,131,16.0,19.0,90,0.00,,,0.00,Wunderground v.1.15,2013-04-09 03:45:00,
2013-04-08 22:50:00,61.3,58.3,29.62,SE,128,17.0,17.0,90,0.00,,,0.00,Wunderground v.1.15,2013-04-09 03:50:00,
2013-04-08 22:55:00,61.1,58.1,29.62,SE,128,17.0,19.0,90,0.00,,,0.00,Wunderground v.1.15,2013-04-09 03:55:00,
2013-04-08 23:00:00,61.0,58.0,29.62,SE,126,17.0,17.0,90,0.00,,,0.00,Wunderground v.1.15,2013-04-09 04:00:00,
2013-04-08 23:05:00,60.9,58.3,29.63,ESE,107,15.0,19.0,91,0.00,,,0.00,Wunderground v.1.15,2013-04-09 04:05:00,
2013-04-08 23:10:00,60.9,58.3,29.63,ESE,113,14.0,14.0,91,0.00,,,0.00,Wunderground v.1.15,2013-04-09 04:10:00,
2013-04-08 23:15:00,60.9,58.3,29.64,ESE,103,13.0,15.0,91,0.00,,,0.00,Wunderground v.1.15,2013-04-09 04:15:00,
2013-04-08 23:25:00,60.9,58.3,29.63,ESE,109,14.0,19.0,91,0.00,,,0.00,Wunderground v.1.15,2013-04-09 04:25:00,
2013-04-08 23:30:00,60.8,58.2,29.64,ESE,121,14.0,19.0,91,0.00,,,0.00,Wunderground v.1.15,2013-04-09 04:30:00,
2013-04-08 23:35:00,60.7,58.1,29.64,ESE,117,14.0,19.0,91,0.00,,,0.00,Wunderground v.1.15,2013-04-09 04:35:00,
2013-04-08 23:45:00,60.6,58.0,29.64,ESE,117,14.0,19.0,91,0.00,,,0.00,Wunderground v.1.15,2013-04-09 04:45:00,
2013-04-08 23:50:00,60.7,58.1,29.63,ESE,113,14.0,19.0,91,0.00,,,0.00,Wunderground v.1.15,2013-04-09 04:50:00,
2013-04-08 23:55:00,60.8,58.2,29.63,ESE,111,14.0,19.0,91,0.00,,,0.00,Wunderground v.1.15,2013-04-09 04:55:00,